Location: Freistadt
(48.5112°N, 14.5013°E)
Time: 10:57:23
(UTC+02:00)

MOZHAYETS 4 - Pass Details

Date: 05 April 2023
Orbit: 657 x 675 km, 98.2° (Epoch: 03 June)

Event Time Altitude Azimuth Distance (km) Brightness Sun altitude
Exits shadow 03:42:48 65° 331° (NNW) 731 7.8 -25.6°
Drops below altitude 10° 03:46:43 10° 345° (NNW) 2,093 10.6 -25.1°
Sets 03:48:58 0° 346° (NNW) 3,014 11.5 -24.8°
